| time (UTC) | temp F | wind direction | speed knots | gust knots | rain 1hr in | rain 24hr in | rain mn in | humidity % | barometer mb |
| 20260902165521 | 95 | 286 | 0.0 | 0.0 | 0.00 | 0.00 | 0.00 | 47 | 1024.9 |
| 20260902165016 | 95 | 298 | 0.0 | 0.0 | 0.00 | 0.00 | 0.00 | 46 | 1025.0 |
| 20260902164511 | 94 | 299 | 0.0 | 0.0 | 0.00 | 0.00 | 0.00 | 49 | 1024.7 |
| 20260902164010 | 93 | 299 | 0.0 | 0.0 | 0.00 | 0.00 | 0.00 | 49 | 1024.8 |
| 20260902163506 | 94 | 288 | 0.0 | 0.0 | 0.00 | 0.00 | 0.00 | 50 | 1024.9 |
| 20260902163004 | 94 | 282 | 0.0 | 0.0 | 0.00 | 0.00 | 0.00 | 51 | 1025.0 |
| 20260902162458 | 93 | 270 | 0.0 | 0.0 | 0.00 | 0.00 | 0.00 | 54 | 1025.1 |
| 20260902161953 | 93 | 251 | 0.0 | 0.0 | 0.00 | 0.00 | 0.00 | 52 | 1025.4 |
| 20260902161448 | 93 | 296 | 0.0 | 0.0 | 0.00 | 0.00 | 0.00 | 53 | 1025.2 |
| 20260902160944 | 93 | 263 | 0.0 | 0.0 | 0.00 | 0.00 | 0.00 | 55 | 1025.4 |
| 20260902160439 | 92 | 277 | 0.0 | 0.0 | 0.00 | 0.00 | 0.00 | 57 | 1025.1 |
| 20260902155937 | 92 | 293 | 0.0 | 0.0 | 0.00 | 0.00 | 0.00 | 57 | 1025.3 |
| 20260902155433 | 91 | 303 | 0.0 | 0.0 | 0.00 | 0.00 | 0.00 | 58 | 1025.4 |
| 20260902154926 | 91 | 272 | 0.0 | 0.0 | 0.00 | 0.00 | 0.00 | 57 | 1025.4 |
| 20260902154422 | 91 | 302 | 0.0 | 0.0 | 0.00 | 0.00 | 0.00 | 58 | 1025.4 |
| 20260902153921 | 91 | 301 | 0.0 | 0.0 | 0.00 | 0.00 | 0.00 | 59 | 1025.6 |
| 20260902153420 | 91 | 258 | 0.0 | 0.0 | 0.00 | 0.00 | 0.00 | 60 | 1025.5 |
| 20260902152916 | 90 | 227 | 0.0 | 0.0 | 0.00 | 0.00 | 0.00 | 60 | 1025.4 |
| 20260902152412 | 89 | 290 | 0.0 | 0.0 | 0.00 | 0.00 | 0.00 | 61 | 1025.5 |
| 20260902151907 | 89 | 290 | 0.0 | 0.0 | 0.00 | 0.00 | 0.00 | 61 | 1025.7 |
| 20260902151402 | 89 | 283 | 0.0 | 0.0 | 0.00 | 0.00 | 0.00 | 62 | 1025.5 |
| 20260902150857 | 89 | 283 | 0.0 | 0.0 | 0.00 | 0.00 | 0.00 | 62 | 1025.4 |
| 20260902150353 | 88 | 291 | 0.0 | 0.0 | 0.00 | 0.00 | 0.00 | 63 | 1025.7 |
| 20260902145852 | 88 | 291 | 0.0 | 0.0 | 0.00 | 0.00 | 0.00 | 63 | 1025.6 |
| 20260902145348 | 88 | 282 | 0.0 | 0.0 | 0.00 | 0.00 | 0.00 | 63 | 1025.6 |
| 20260902144843 | 88 | 266 | 0.0 | 0.0 | 0.00 | 0.00 | 0.00 | 64 | 1025.4 |
| 20260902144339 | 87 | 265 | 0.0 | 0.0 | 0.00 | 0.00 | 0.00 | 64 | 1025.5 |
| 20260902143833 | 87 | 265 | 0.0 | 0.0 | 0.00 | 0.00 | 0.00 | 65 | 1025.4 |
| 20260902143328 | 86 | 270 | 0.0 | 0.0 | 0.00 | 0.00 | 0.00 | 67 | 1025.4 |
| 20260902142824 | 86 | 290 | 0.0 | 0.0 | 0.00 | 0.00 | 0.00 | 67 | 1025.5 |
| 20260902142320 | 86 | 218 | 0.0 | 0.0 | 0.00 | 0.00 | 0.00 | 69 | 1025.4 |
| 20260902141815 | 85 | 288 | 0.0 | 0.0 | 0.00 | 0.00 | 0.00 | 69 | 1025.4 |
| 20260902141311 | 84 | 284 | 0.0 | 0.0 | 0.00 | 0.00 | 0.00 | 72 | 1025.5 |
| 20260902140810 | 84 | 277 | 0.0 | 0.0 | 0.00 | 0.00 | 0.00 | 73 | 1025.5 |
| 20260902140305 | 83 | 282 | 0.0 | 0.0 | 0.00 | 0.00 | 0.00 | 75 | 1025.6 |
| 20260902135804 | 83 | 273 | 0.0 | 0.0 | 0.00 | 0.00 | 0.00 | 75 | 1025.3 |
| 20260902135300 | 83 | 272 | 0.0 | 0.0 | 0.00 | 0.00 | 0.00 | 75 | 1025.3 |
| 20260902134759 | 82 | 281 | 0.0 | 0.0 | 0.00 | 0.00 | 0.00 | 76 | 1025.5 |
| 20260902134255 | 81 | 262 | 0.0 | 0.0 | 0.00 | 0.00 | 0.00 | 78 | 1025.5 |
| 20260902133750 | 81 | 262 | 0.0 | 0.0 | 0.00 | 0.00 | 0.00 | 79 | 1025.5 |
| 20260902133249 | 81 | 262 | 0.0 | 0.0 | 0.00 | 0.00 | 0.00 | 80 | 1025.6 |
| 20260902132745 | 80 | 262 | 0.0 | 0.0 | 0.00 | 0.00 | 0.00 | 79 | 1025.3 |
| 20260902132241 | 80 | 262 | 0.0 | 0.0 | 0.00 | 0.00 | 0.00 | 81 | 1025.3 |
| 20260902131736 | 80 | 262 | 0.0 | 0.0 | 0.00 | 0.00 | 0.00 | 82 | 1025.4 |
| 20260902131232 | 79 | 262 | 0.0 | 0.0 | 0.00 | 0.00 | 0.00 | 82 | 1025.4 |
| 20260902130726 | 79 | 262 | 0.0 | 0.0 | 0.00 | 0.00 | 0.00 | 82 | 1025.5 |
| 20260902130222 | 78 | 262 | 0.0 | 0.0 | 0.00 | 0.00 | 0.00 | 83 | 1025.2 |
| 20260902125717 | 78 | 262 | 0.0 | 0.0 | 0.00 | 0.00 | 0.00 | 84 | 1025.5 |
| 20260902125214 | 77 | 262 | 0.0 | 0.0 | 0.00 | 0.00 | 0.00 | 83 | 1025.2 |
| 20260902124710 | 77 | 262 | 0.0 | 0.0 | 0.00 | 0.00 | 0.00 | 86 | 1025.3 |
| 20260902124210 | 76 | 262 | 0.0 | 0.0 | 0.00 | 0.00 | 0.00 | 86 | 1025.3 |
| 20260902123705 | 76 | 262 | 0.0 | 0.0 | 0.00 | 0.00 | 0.00 | 87 | 1025.3 |
| 20260902123201 | 76 | 262 | 0.0 | 0.0 | 0.00 | 0.00 | 0.00 | 87 | 1025.3 |
| 20260902122700 | 76 | 262 | 0.0 | 0.0 | 0.00 | 0.00 | 0.00 | 87 | 1025.2 |
| 20260902122156 | 75 | 262 | 0.0 | 0.0 | 0.00 | 0.00 | 0.00 | 87 | 1025.0 |
| 20260902121650 | 75 | 262 | 0.0 | 0.0 | 0.00 | 0.00 | 0.00 | 87 | 1025.1 |
| 20260902121145 | 75 | 262 | 0.0 | 0.0 | 0.00 | 0.00 | 0.00 | 88 | 1025.0 |
| 20260902120641 | 75 | 262 | 0.0 | 0.0 | 0.00 | 0.00 | 0.00 | 88 | 1025.0 |
| 20260902120137 | 75 | 262 | 0.0 | 0.0 | 0.00 | 0.00 | 0.00 | 88 | 1025.0 |
| 20260902115632 | 75 | 262 | 0.0 | 0.0 | 0.00 | 0.00 | 0.00 | 88 | 1025.1 |
| 20260902115128 | 75 | 262 | 0.0 | 0.0 | 0.00 | 0.00 | 0.00 | 87 | 1024.8 |
| 20260902114623 | 75 | 262 | 0.0 | 0.0 | 0.00 | 0.00 | 0.00 | 88 | 1024.8 |
| 20260902114118 | 75 | 262 | 0.0 | 0.0 | 0.00 | 0.00 | 0.00 | 88 | 1025.0 |
| 20260902113614 | 75 | 262 | 0.0 | 0.0 | 0.00 | 0.00 | 0.00 | 88 | 1024.7 |
| 20260902113108 | 75 | 262 | 0.0 | 0.0 | 0.00 | 0.00 | 0.00 | 87 | 1024.7 |
| 20260902112603 | 75 | 262 | 0.0 | 0.0 | 0.00 | 0.00 | 0.00 | 87 | 1024.9 |
| 20260902112100 | 75 | 262 | 0.0 | 0.0 | 0.00 | 0.00 | 0.00 | 87 | 1024.8 |
| 20260902111556 | 75 | 262 | 0.0 | 0.0 | 0.00 | 0.00 | 0.00 | 87 | 1024.9 |
| 20260902111051 | 75 | 262 | 0.0 | 0.0 | 0.00 | 0.00 | 0.00 | 87 | 1024.7 |
| 20260902110548 | 75 | 262 | 0.0 | 0.0 | 0.00 | 0.00 | 0.00 | 87 | 1024.7 |
| 20260902110043 | 75 | 262 | 0.0 | 0.0 | 0.00 | 0.00 | 0.00 | 87 | 1024.7 |
| 20260902105537 | 75 | 262 | 0.0 | 0.0 | 0.00 | 0.00 | 0.00 | 87 | 1024.5 |
| 20260902105032 | 75 | 262 | 0.0 | 0.0 | 0.00 | 0.00 | 0.00 | 87 | 1024.5 |
| 20260902104527 | 75 | 262 | 0.0 | 0.0 | 0.00 | 0.00 | 0.00 | 87 | 1024.6 |
| 20260902104027 | 75 | 262 | 0.0 | 0.0 | 0.00 | 0.00 | 0.00 | 87 | 1024.5 |
| 20260902103523 | 75 | 262 | 0.0 | 0.0 | 0.00 | 0.00 | 0.00 | 87 | 1024.6 |
| 20260902103018 | 75 | 262 | 0.0 | 0.0 | 0.00 | 0.00 | 0.00 | 88 | 1024.6 |
| 20260902102515 | 75 | 262 | 0.0 | 0.0 | 0.00 | 0.00 | 0.00 | 87 | 1024.2 |
| 20260902102011 | 75 | 262 | 0.0 | 0.0 | 0.00 | 0.00 | 0.00 | 87 | 1024.3 |
| 20260902101506 | 75 | 262 | 0.0 | 0.0 | 0.00 | 0.00 | 0.00 | 87 | 1024.2 |
| 20260902101005 | 75 | 262 | 0.0 | 0.0 | 0.00 | 0.00 | 0.00 | 87 | 1024.4 |
| 20260902100500 | 75 | 262 | 0.0 | 0.0 | 0.00 | 0.00 | 0.00 | 87 | 1024.4 |
| 20260902100000 | 75 | 262 | 0.0 | 0.0 | 0.00 | 0.00 | 0.00 | 87 | 1024.4 |
| 20260902095454 | 75 | 262 | 0.0 | 0.0 | 0.00 | 0.00 | 0.00 | 87 | 1024.3 |
| 20260902094954 | 75 | 262 | 0.0 | 0.0 | 0.00 | 0.00 | 0.00 | 86 | 1024.2 |
| 20260902094449 | 75 | 262 | 0.0 | 0.0 | 0.00 | 0.00 | 0.00 | 86 | 1024.3 |
| 20260902093944 | 75 | 262 | 0.0 | 0.0 | 0.00 | 0.00 | 0.00 | 86 | 1024.0 |
| 20260902093439 | 76 | 262 | 0.0 | 0.0 | 0.00 | 0.00 | 0.00 | 86 | 1024.0 |
| 20260902092938 | 75 | 262 | 0.0 | 0.0 | 0.00 | 0.00 | 0.00 | 86 | 1023.9 |
| 20260902092434 | 76 | 262 | 0.0 | 0.0 | 0.00 | 0.00 | 0.00 | 86 | 1023.9 |
| 20260902091934 | 76 | 262 | 0.0 | 0.0 | 0.00 | 0.00 | 0.00 | 85 | 1024.0 |
| 20260902091429 | 76 | 262 | 0.0 | 0.0 | 0.00 | 0.00 | 0.00 | 86 | 1023.7 |
| 20260902090925 | 76 | 262 | 0.0 | 0.0 | 0.00 | 0.00 | 0.00 | 85 | 1023.7 |
| 20260902090426 | 76 | 262 | 0.0 | 0.0 | 0.00 | 0.00 | 0.00 | 85 | 1024.0 |
| 20260902085924 | 76 | 262 | 0.0 | 0.0 | 0.00 | 0.00 | 0.00 | 85 | 1023.8 |
| 20260902085420 | 76 | 262 | 0.0 | 0.0 | 0.00 | 0.00 | 0.00 | 86 | 1023.8 |
| 20260902084915 | 76 | 262 | 0.0 | 0.0 | 0.00 | 0.00 | 0.00 | 85 | 1023.7 |
| 20260902084412 | 76 | 262 | 0.0 | 0.0 | 0.00 | 0.00 | 0.00 | 85 | 1023.6 |
| 20260902083907 | 76 | 262 | 0.0 | 0.0 | 0.00 | 0.00 | 0.00 | 85 | 1023.6 |
| 20260902083407 | 76 | 262 | 0.0 | 0.0 | 0.00 | 0.00 | 0.00 | 85 | 1023.6 |
| 20260902082902 | 76 | 262 | 0.0 | 0.0 | 0.00 | 0.00 | 0.00 | 85 | 1023.7 |
| 20260902082357 | 76 | 262 | 0.0 | 0.0 | 0.00 | 0.00 | 0.00 | 85 | 1023.6 |
| 20260902081854 | 77 | 262 | 0.0 | 0.0 | 0.00 | 0.00 | 0.00 | 85 | 1023.6 |
| 20260902081350 | 77 | 262 | 0.0 | 0.0 | 0.00 | 0.00 | 0.00 | 84 | 1023.6 |
| 20260902080844 | 77 | 262 | 0.0 | 0.0 | 0.00 | 0.00 | 0.00 | 84 | 1023.6 |
| 20260902080341 | 77 | 262 | 0.0 | 0.0 | 0.00 | 0.00 | 0.00 | 84 | 1023.7 |
| 20260902075840 | 77 | 262 | 0.0 | 0.0 | 0.00 | 0.00 | 0.00 | 84 | 1023.5 |
| 20260902075337 | 77 | 262 | 0.0 | 0.0 | 0.00 | 0.00 | 0.00 | 84 | 1023.5 |
| 20260902074832 | 77 | 262 | 0.0 | 0.0 | 0.00 | 0.00 | 0.00 | 84 | 1023.4 |
| 20260902074327 | 77 | 262 | 0.0 | 0.0 | 0.00 | 0.00 | 0.00 | 84 | 1023.4 |
| 20260902073822 | 77 | 262 | 0.0 | 0.0 | 0.00 | 0.00 | 0.00 | 84 | 1023.6 |
| 20260902073319 | 77 | 262 | 0.0 | 0.0 | 0.00 | 0.00 | 0.00 | 84 | 1023.5 |
| 20260902072814 | 77 | 262 | 0.0 | 0.0 | 0.00 | 0.00 | 0.00 | 84 | 1023.5 |
| 20260902072310 | 77 | 262 | 0.0 | 0.0 | 0.00 | 0.00 | 0.00 | 84 | 1023.4 |
| 20260902071806 | 77 | 262 | 0.0 | 0.0 | 0.00 | 0.00 | 0.00 | 84 | 1023.5 |
| 20260902071300 | 77 | 262 | 0.0 | 0.0 | 0.00 | 0.00 | 0.00 | 85 | 1023.4 |
| 20260902070757 | 77 | 262 | 0.0 | 0.0 | 0.00 | 0.00 | 0.00 | 85 | 1023.9 |
| 20260902070256 | 77 | 262 | 0.0 | 0.0 | 0.00 | 0.00 | 0.00 | 84 | 1023.5 |
| 20260902065755 | 77 | 262 | 0.0 | 0.0 | 0.00 | 0.00 | 0.00 | 84 | 1023.6 |
| 20260902065250 | 77 | 262 | 0.0 | 0.0 | 0.00 | 0.00 | 0.00 | 84 | 1023.6 |
| 20260902064746 | 77 | 262 | 0.0 | 0.0 | 0.00 | 0.00 | 0.00 | 84 | 1023.8 |
| 20260902064242 | 77 | 262 | 0.0 | 0.0 | 0.00 | 0.00 | 0.00 | 83 | 1023.9 |
| 20260902063738 | 78 | 262 | 0.0 | 0.0 | 0.00 | 0.00 | 0.00 | 84 | 1023.5 |
| 20260902063237 | 78 | 262 | 0.0 | 0.0 | 0.00 | 0.00 | 0.00 | 84 | 1023.6 |
| 20260902062731 | 78 | 262 | 0.0 | 0.0 | 0.00 | 0.00 | 0.00 | 84 | 1023.8 |
| 20260902062226 | 78 | 262 | 0.0 | 0.0 | 0.00 | 0.00 | 0.00 | 84 | 1023.7 |
| 20260902061725 | 78 | 262 | 0.0 | 0.0 | 0.00 | 0.00 | 0.00 | 83 | 1023.7 |
| 20260902061221 | 78 | 263 | 0.0 | 0.0 | 0.00 | 0.00 | 0.00 | 83 | 1023.8 |
| 20260902060718 | 78 | 263 | 0.0 | 0.0 | 0.00 | 0.00 | 0.00 | 83 | 1023.9 |
| 20260902060213 | 78 | 263 | 0.0 | 0.0 | 0.00 | 0.00 | 0.00 | 82 | 1023.5 |
| 20260902055709 | 78 | 263 | 0.0 | 0.0 | 0.00 | 0.00 | 0.00 | 81 | 1023.8 |
| 20260902055205 | 78 | 263 | 0.0 | 0.0 | 0.00 | 0.00 | 0.00 | 81 | 1023.8 |
| 20260902054700 | 78 | 263 | 0.0 | 0.0 | 0.00 | 0.00 | 0.00 | 81 | 1023.7 |
| 20260902054155 | 78 | 263 | 0.0 | 0.0 | 0.00 | 0.00 | 0.00 | 81 | 1023.9 |
| 20260902053651 | 79 | 263 | 0.0 | 0.0 | 0.00 | 0.00 | 0.00 | 81 | 1023.8 |
| 20260902053151 | 79 | 263 | 0.0 | 0.0 | 0.00 | 0.00 | 0.00 | 80 | 1024.0 |
| 20260902052650 | 79 | 263 | 0.0 | 0.0 | 0.00 | 0.00 | 0.00 | 80 | 1024.0 |
| 20260902052146 | 79 | 263 | 0.0 | 0.0 | 0.00 | 0.00 | 0.00 | 79 | 1023.8 |
| 20260902051644 | 79 | 263 | 0.0 | 0.0 | 0.00 | 0.00 | 0.00 | 79 | 1023.9 |
| 20260902051139 | 79 | 263 | 0.0 | 0.0 | 0.00 | 0.00 | 0.00 | 78 | 1024.0 |
| 20260902050633 | 79 | 262 | 0.0 | 0.0 | 0.00 | 0.00 | 0.00 | 78 | 1023.9 |
| 20260902050129 | 79 | 261 | 0.0 | 0.0 | 0.00 | 0.00 | 0.00 | 77 | 1024.2 |
| 20260902045624 | 79 | 258 | 0.0 | 0.0 | 0.00 | 0.00 | 0.00 | 77 | 1023.9 |
| 20260902045120 | 79 | 281 | 0.0 | 0.0 | 0.00 | 0.00 | 0.00 | 76 | 1023.7 |
| 20260902044620 | 79 | 281 | 0.0 | 0.0 | 0.00 | 0.00 | 0.00 | 77 | 1023.7 |
| 20260902044116 | 79 | 281 | 0.0 | 0.0 | 0.00 | 0.00 | 0.00 | 77 | 1023.7 |
| 20260902043611 | 79 | 281 | 0.0 | 0.0 | 0.00 | 0.00 | 0.00 | 77 | 1023.7 |
| 20260902043106 | 79 | 281 | 0.0 | 0.0 | 0.00 | 0.00 | 0.00 | 77 | 1023.8 |
| 20260902042606 | 79 | 281 | 0.0 | 0.0 | 0.00 | 0.00 | 0.00 | 77 | 1023.8 |
| 20260902042101 | 80 | 281 | 0.0 | 0.0 | 0.00 | 0.00 | 0.00 | 77 | 1024.1 |
| 20260902041601 | 80 | 281 | 0.0 | 0.0 | 0.00 | 0.00 | 0.00 | 77 | 1023.9 |
| 20260902041055 | 80 | 281 | 0.0 | 0.0 | 0.00 | 0.00 | 0.00 | 77 | 1023.9 |
| 20260902040549 | 80 | 281 | 0.0 | 0.0 | 0.00 | 0.00 | 0.00 | 78 | 1024.1 |
| 20260902040045 | 80 | 281 | 0.0 | 0.0 | 0.00 | 0.00 | 0.00 | 78 | 1023.9 |
| 20260902035543 | 80 | 281 | 0.0 | 0.0 | 0.00 | 0.00 | 0.00 | 77 | 1023.9 |
| 20260902035039 | 80 | 281 | 0.0 | 0.0 | 0.00 | 0.00 | 0.00 | 77 | 1024.0 |
| 20260902034538 | 80 | 281 | 0.0 | 0.0 | 0.00 | 0.00 | 0.00 | 78 | 1024.2 |
| 20260902034037 | 80 | 281 | 0.0 | 0.0 | 0.00 | 0.00 | 0.00 | 78 | 1023.9 |
| 20260902033536 | 80 | 281 | 0.0 | 0.0 | 0.00 | 0.00 | 0.00 | 77 | 1023.9 |
| 20260902033032 | 80 | 281 | 0.0 | 0.0 | 0.00 | 0.00 | 0.00 | 77 | 1024.0 |
| 20260902032530 | 80 | 281 | 0.0 | 0.0 | 0.00 | 0.00 | 0.00 | 75 | 1024.0 |
| 20260902032025 | 81 | 281 | 0.0 | 0.0 | 0.00 | 0.00 | 0.00 | 74 | 1024.2 |
| 20260902031520 | 81 | 281 | 0.0 | 0.0 | 0.00 | 0.00 | 0.00 | 74 | 1024.1 |
| 20260902031016 | 81 | 281 | 0.0 | 0.0 | 0.00 | 0.00 | 0.00 | 74 | 1024.1 |
| 20260902030511 | 81 | 281 | 0.0 | 0.0 | 0.00 | 0.00 | 0.00 | 73 | 1024.3 |
| 20260902030011 | 81 | 281 | 0.0 | 0.0 | 0.00 | 0.00 | 0.00 | 72 | 1024.1 |
| 20260902025505 | 81 | 281 | 0.0 | 0.0 | 0.00 | 0.00 | 0.00 | 72 | 1023.9 |
| 20260902025000 | 81 | 281 | 0.0 | 0.0 | 0.00 | 0.00 | 0.00 | 71 | 1024.0 |
| 20260902024456 | 82 | 281 | 0.0 | 0.0 | 0.00 | 0.00 | 0.00 | 73 | 1023.9 |
| 20260902023950 | 82 | 281 | 0.0 | 0.0 | 0.00 | 0.00 | 0.00 | 73 | 1023.9 |
| 20260902023446 | 82 | 281 | 0.0 | 0.0 | 0.00 | 0.00 | 0.00 | 72 | 1023.9 |
| 20260902022945 | 82 | 281 | 0.0 | 0.0 | 0.00 | 0.00 | 0.00 | 71 | 1023.9 |
| 20260902022441 | 82 | 281 | 0.0 | 0.0 | 0.00 | 0.00 | 0.00 | 72 | 1023.9 |
| 20260902021936 | 82 | 281 | 0.0 | 0.0 | 0.00 | 0.00 | 0.00 | 72 | 1023.8 |
| 20260902021431 | 82 | 281 | 0.0 | 0.0 | 0.00 | 0.00 | 0.00 | 71 | 1023.7 |
| 20260902020926 | 82 | 281 | 0.0 | 0.0 | 0.00 | 0.00 | 0.00 | 71 | 1023.6 |
| 20260902020423 | 82 | 281 | 0.0 | 0.0 | 0.00 | 0.00 | 0.00 | 70 | 1023.7 |
| 20260902015918 | 83 | 281 | 0.0 | 0.0 | 0.00 | 0.00 | 0.00 | 70 | 1023.6 |
| 20260902015414 | 83 | 281 | 0.0 | 0.0 | 0.00 | 0.00 | 0.00 | 70 | 1023.8 |
| 20260902014909 | 83 | 281 | 0.0 | 0.0 | 0.00 | 0.00 | 0.00 | 70 | 1023.7 |
| 20260902014406 | 83 | 281 | 0.0 | 0.0 | 0.00 | 0.00 | 0.00 | 69 | 1023.5 |
| 20260902013904 | 83 | 281 | 0.0 | 0.0 | 0.00 | 0.00 | 0.00 | 68 | 1023.4 |
| 20260902013400 | 83 | 281 | 0.0 | 0.0 | 0.00 | 0.00 | 0.00 | 69 | 1023.2 |
| 20260902012855 | 83 | 281 | 0.0 | 0.0 | 0.00 | 0.00 | 0.00 | 67 | 1023.3 |
| 20260902012351 | 84 | 281 | 0.0 | 0.0 | 0.00 | 0.00 | 0.00 | 68 | 1023.2 |
| 20260902011847 | 84 | 281 | 0.0 | 0.0 | 0.00 | 0.00 | 0.00 | 67 | 1023.1 |
| 20260902011341 | 84 | 281 | 0.0 | 0.0 | 0.00 | 0.00 | 0.00 | 64 | 1023.0 |
| 20260902010841 | 84 | 281 | 0.0 | 0.0 | 0.00 | 0.00 | 0.00 | 65 | 1023.1 |
| 20260902010336 | 84 | 281 | 0.0 | 0.0 | 0.00 | 0.00 | 0.00 | 65 | 1023.0 |
| 20260902005834 | 84 | 281 | 0.0 | 0.0 | 0.00 | 0.00 | 0.00 | 65 | 1023.0 |
| 20260902005329 | 85 | 281 | 0.0 | 0.0 | 0.00 | 0.00 | 0.00 | 65 | 1023.2 |
| 20260902004824 | 85 | 281 | 0.0 | 0.0 | 0.00 | 0.00 | 0.00 | 63 | 1022.9 |
| 20260902004319 | 86 | 281 | 0.0 | 0.0 | 0.00 | 0.00 | 0.00 | 62 | 1023.0 |
| 20260902003814 | 86 | 281 | 0.0 | 0.0 | 0.00 | 0.00 | 0.00 | 61 | 1022.7 |
| 20260902003309 | 86 | 281 | 0.0 | 0.0 | 0.00 | 0.00 | 0.00 | 61 | 1023.0 |
| 20260902002805 | 86 | 281 | 0.0 | 0.0 | 0.00 | 0.00 | 0.00 | 61 | 1022.7 |
| 20260902002306 | 87 | 283 | 0.0 | 0.0 | 0.00 | 0.00 | 0.00 | 59 | 1022.6 |
| 20260902001800 | 87 | 283 | 0.0 | 0.0 | 0.00 | 0.00 | 0.00 | 59 | 1023.0 |
| 20260902001255 | 87 | 284 | 0.0 | 0.0 | 0.00 | 0.00 | 0.00 | 58 | 1023.0 |
| 20260902000749 | 87 | 284 | 0.0 | 0.0 | 0.00 | 0.00 | 0.00 | 58 | 1022.9 |
| 20260902000244 | 88 | 284 | 0.0 | 0.0 | 0.00 | 0.00 | 0.00 | 57 | 1023.2 |
| 20260901235739 | 88 | 285 | 0.0 | 0.0 | 0.00 | 0.00 | 0.00 | 56 | 1022.9 |
| 20260901235234 | 89 | 285 | 0.0 | 0.0 | 0.00 | 0.00 | 0.00 | 55 | 1023.0 |
| 20260901234733 | 89 | 285 | 0.0 | 0.0 | 0.00 | 0.00 | 0.00 | 55 | 1023.0 |
| 20260901234233 | 89 | 285 | 0.0 | 0.0 | 0.00 | 0.00 | 0.00 | 54 | 1023.1 |
| 20260901233728 | 89 | 285 | 0.0 | 0.0 | 0.00 | 0.00 | 0.00 | 53 | 1023.0 |
| 20260901233224 | 90 | 282 | 0.0 | 0.0 | 0.00 | 0.00 | 0.00 | 53 | 1023.1 |
| 20260901232719 | 90 | 282 | 0.0 | 0.0 | 0.00 | 0.00 | 0.00 | 52 | 1023.2 |
| 20260901232214 | 90 | 282 | 0.0 | 0.0 | 0.00 | 0.00 | 0.00 | 52 | 1023.2 |
| 20260901231711 | 90 | 282 | 0.0 | 0.0 | 0.00 | 0.00 | 0.00 | 52 | 1023.3 |
| 20260901231206 | 91 | 282 | 0.0 | 0.0 | 0.00 | 0.00 | 0.00 | 52 | 1023.2 |
| 20260901230702 | 91 | 282 | 0.0 | 0.0 | 0.00 | 0.00 | 0.00 | 51 | 1023.0 |
| 20260901230201 | 91 | 286 | 0.0 | 0.0 | 0.00 | 0.00 | 0.00 | 51 | 1023.0 |
| 20260901225657 | 91 | 297 | 0.0 | 0.0 | 0.00 | 0.00 | 0.00 | 50 | 1022.7 |
| 20260901225151 | 91 | 297 | 0.0 | 0.0 | 0.00 | 0.00 | 0.00 | 50 | 1023.2 |
| 20260901224647 | 92 | 297 | 0.0 | 0.0 | 0.00 | 0.00 | 0.00 | 50 | 1023.2 |
| 20260901224143 | 92 | 297 | 0.0 | 0.0 | 0.00 | 0.00 | 0.00 | 49 | 1023.0 |
| 20260901223639 | 92 | 297 | 0.0 | 0.0 | 0.00 | 0.00 | 0.00 | 48 | 1022.9 |
| 20260901223134 | 92 | 297 | 0.0 | 0.0 | 0.00 | 0.00 | 0.00 | 48 | 1022.7 |
| 20260901222630 | 92 | 297 | 0.0 | 0.0 | 0.00 | 0.00 | 0.00 | 50 | 1022.9 |
| 20260901222126 | 92 | 297 | 0.0 | 0.0 | 0.00 | 0.00 | 0.00 | 50 | 1022.9 |
| 20260901221622 | 92 | 276 | 0.0 | 0.0 | 0.00 | 0.00 | 0.00 | 51 | 1022.7 |
| 20260901221117 | 92 | 263 | 0.0 | 0.0 | 0.00 | 0.00 | 0.00 | 50 | 1023.0 |
| 20260901220616 | 92 | 274 | 0.0 | 0.0 | 0.00 | 0.00 | 0.00 | 50 | 1022.9 |
| 20260901220115 | 92 | 278 | 0.0 | 0.0 | 0.00 | 0.00 | 0.00 | 51 | 1022.9 |
| 20260901215614 | 92 | 238 | 0.0 | 0.0 | 0.00 | 0.00 | 0.00 | 50 | 1023.0 |
| 20260901215108 | 92 | 238 | 0.0 | 0.0 | 0.00 | 0.00 | 0.00 | 49 | 1023.2 |
| 20260901214607 | 93 | 271 | 0.0 | 0.0 | 0.00 | 0.00 | 0.00 | 49 | 1023.0 |
| 20260901214107 | 92 | 287 | 0.0 | 0.0 | 0.00 | 0.00 | 0.00 | 49 | 1023.1 |
| 20260901213601 | 92 | 275 | 0.0 | 0.0 | 0.00 | 0.00 | 0.00 | 50 | 1023.0 |
| 20260901213055 | 92 | 292 | 0.0 | 0.0 | 0.00 | 0.00 | 0.00 | 49 | 1022.9 |
| 20260901212555 | 92 | 261 | 0.0 | 0.0 | 0.00 | 0.00 | 0.00 | 47 | 1023.0 |
| 20260901212052 | 91 | 263 | 0.0 | 0.0 | 0.00 | 0.00 | 0.00 | 53 | 1023.0 |
| 20260901211547 | 91 | 262 | 0.0 | 0.0 | 0.00 | 0.00 | 0.00 | 52 | 1023.1 |
| 20260901211043 | 91 | 262 | 0.0 | 0.0 | 0.00 | 0.00 | 0.00 | 52 | 1023.3 |
| 20260901210538 | 90 | 262 | 0.0 | 0.0 | 0.00 | 0.00 | 0.00 | 52 | 1023.1 |
| 20260901210035 | 90 | 262 | 0.0 | 0.0 | 0.00 | 0.00 | 0.00 | 51 | 1023.2 |
| 20260901205529 | 91 | 262 | 0.0 | 0.0 | 0.00 | 0.00 | 0.00 | 51 | 1022.9 |
| 20260901205024 | 91 | 262 | 0.0 | 0.0 | 0.00 | 0.00 | 0.00 | 51 | 1023.3 |
| 20260901204520 | 92 | 262 | 0.0 | 0.0 | 0.00 | 0.00 | 0.00 | 51 | 1023.3 |
| 20260901204015 | 92 | 262 | 0.0 | 0.0 | 0.00 | 0.00 | 0.00 | 49 | 1023.2 |
| 20260901203509 | 93 | 262 | 0.0 | 0.0 | 0.00 | 0.00 | 0.00 | 47 | 1023.2 |
| 20260901203004 | 93 | 259 | 0.0 | 0.0 | 0.00 | 0.00 | 0.00 | 47 | 1023.4 |
| 20260901202459 | 93 | 281 | 0.0 | 0.0 | 0.00 | 0.00 | 0.00 | 48 | 1023.4 |
| 20260901201955 | 93 | 299 | 0.0 | 0.0 | 0.00 | 0.00 | 0.00 | 48 | 1023.6 |
| 20260901201450 | 92 | 276 | 0.0 | 0.0 | 0.00 | 0.00 | 0.00 | 50 | 1023.5 |
| 20260901200944 | 93 | 276 | 0.0 | 0.0 | 0.00 | 0.00 | 0.00 | 49 | 1023.3 |
| 20260901200439 | 93 | 276 | 0.0 | 0.0 | 0.00 | 0.00 | 0.00 | 48 | 1023.4 |
| 20260901195938 | 94 | 263 | 0.0 | 0.0 | 0.00 | 0.00 | 0.00 | 47 | 1023.6 |
| 20260901195437 | 93 | 263 | 0.0 | 0.0 | 0.00 | 0.00 | 0.00 | 45 | 1023.5 |
| 20260901194932 | 94 | 268 | 0.0 | 0.0 | 0.00 | 0.00 | 0.00 | 46 | 1023.6 |
| 20260901194427 | 93 | 251 | 0.0 | 0.0 | 0.00 | 0.00 | 0.00 | 44 | 1023.9 |
| 20260901193923 | 94 | 257 | 0.0 | 0.0 | 0.00 | 0.00 | 0.00 | 43 | 1023.7 |
| 20260901193422 | 94 | 312 | 0.0 | 0.0 | 0.00 | 0.00 | 0.00 | 47 | 1023.8 |
| 20260901192921 | 94 | 306 | 0.0 | 0.0 | 0.00 | 0.00 | 0.00 | 46 | 1024.0 |
| 20260901192417 | 94 | 284 | 0.0 | 0.0 | 0.00 | 0.00 | 0.00 | 46 | 1024.0 |
| 20260901191913 | 94 | 261 | 0.0 | 0.0 | 0.00 | 0.00 | 0.00 | 46 | 1024.0 |
| 20260901191409 | 91 | 246 | 0.0 | 0.0 | 0.00 | 0.00 | 0.00 | 47 | 1024.1 |
| 20260901190905 | 90 | 279 | 0.0 | 0.0 | 0.00 | 0.00 | 0.00 | 55 | 1024.1 |
| 20260901190405 | 90 | 176 | 0.0 | 0.0 | 0.00 | 0.00 | 0.00 | 52 | 1024.1 |
| 20260901185903 | 90 | 297 | 0.0 | 0.0 | 0.00 | 0.00 | 0.00 | 55 | 1024.2 |
| 20260901185402 | 90 | 297 | 0.0 | 0.0 | 0.00 | 0.00 | 0.00 | 54 | 1024.5 |
| 20260901184857 | 90 | 297 | 0.0 | 0.0 | 0.00 | 0.00 | 0.00 | 55 | 1024.4 |
| 20260901184353 | 90 | 297 | 0.0 | 0.0 | 0.00 | 0.00 | 0.00 | 53 | 1024.5 |
| 20260901183848 | 91 | 297 | 0.0 | 0.0 | 0.00 | 0.00 | 0.00 | 53 | 1024.5 |
| 20260901183347 | 91 | 297 | 0.0 | 0.0 | 0.00 | 0.00 | 0.00 | 51 | 1024.5 |
| 20260901182843 | 91 | 297 | 0.0 | 0.0 | 0.00 | 0.00 | 0.00 | 52 | 1024.5 |
| 20260901182343 | 91 | 297 | 0.0 | 0.0 | 0.00 | 0.00 | 0.00 | 52 | 1024.5 |
| 20260901181838 | 92 | 297 | 0.0 | 0.0 | 0.00 | 0.00 | 0.00 | 51 | 1024.5 |
| 20260901181333 | 92 | 297 | 0.0 | 0.0 | 0.00 | 0.00 | 0.00 | 52 | 1024.3 |
| 20260901180832 | 93 | 296 | 0.0 | 0.0 | 0.00 | 0.00 | 0.00 | 51 | 1024.6 |
| 20260901180332 | 93 | 296 | 0.0 | 0.0 | 0.00 | 0.00 | 0.00 | 50 | 1024.6 |
| 20260901175830 | 93 | 295 | 0.0 | 0.0 | 0.00 | 0.00 | 0.00 | 48 | 1024.8 |
| 20260901175325 | 93 | 295 | 0.0 | 0.0 | 0.00 | 0.00 | 0.00 | 50 | 1024.7 |
| 20260901174820 | 92 | 296 | 0.0 | 0.0 | 0.00 | 0.00 | 0.00 | 50 | 1024.7 |
| 20260901174316 | 94 | 298 | 0.0 | 0.0 | 0.00 | 0.00 | 0.00 | 50 | 1025.1 |
| 20260901173811 | 95 | 279 | 0.0 | 0.0 | 0.00 | 0.00 | 0.00 | 49 | 1025.0 |
| 20260901173306 | 95 | 250 | 0.0 | 0.0 | 0.00 | 0.00 | 0.00 | 47 | 1024.9 |
| 20260901172803 | 94 | 271 | 0.0 | 0.0 | 0.00 | 0.00 | 0.00 | 48 | 1025.1 |
| 20260901172304 | 93 | 228 | 0.9 | 1.7 | 0.00 | 0.00 | 0.00 | 48 | 1025.2 |
| 20260901171800 | 91 | 281 | 0.0 | 0.0 | 0.00 | 0.00 | 0.00 | 52 | 1025.3 |
| 20260901171259 | 92 | 283 | 0.0 | 0.0 | 0.00 | 0.00 | 0.00 | 52 | 1025.4 |
| 20260901170759 | 93 | 279 | 0.0 | 0.0 | 0.00 | 0.00 | 0.00 | 52 | 1025.2 |
| 20260901170258 | 93 | 287 | 0.0 | 0.0 | 0.00 | 0.00 | 0.00 | 53 | 1025.4 |
| 20260901165757 | 93 | 244 | 0.0 | 0.0 | 0.00 | 0.00 | 0.00 | 51 | 1025.3 |